Location: Newark
(48.5667°N, 7.8167°E)
Time: 11:13:55
(UTC+00:00)

ISS - Pass Details

Date: 19 September 2021
Orbit: 417 x 423 km, 51.6° (Epoch: 24 October)

Event Time Altitude Azimuth Distance (km) Brightness Sun altitude
Rises 19:34:37 0° 253° (WSW) 2,358 0.8 -20.2°
Reaches altitude 10° 19:36:43 10° 254° (WSW) 1,498 -0.3 -20.5°
Enters shadow 19:39:55 74° 306° (NW) 441 -3.6 -21.0°
